Location: ??????
(56.0120°N, 39.1740°E)
Time: 08:12:56
(UTC+00:00)

Cosmos 405 Rocket - Pass Details

Date: 14 April 2026
Orbit: 359 x 379 km, 81.2° (Epoch: 9 May)

Event Time Altitude Azimuth Distance (km) Brightness Sun altitude
Rises 17:26:04 0° 7° (N) 2,229 6.3 -8.2°
Enters shadow 17:30:56 - 72° (ENE) 1,828 5.1 -8.8°
Exits shadow 18:06:50 -71° 161° (SSE) 12,432 9.6 -12.8°
Reaches altitude 10° 19:00:20 10° 357° (N) 1,370 5.7 -18.0°
